Location: Mount Cross
(36.6390°N, 79.4878°W)
Time: 00:11:17
(UTC+00:00)

Vanguard 2 Rocket - Pass Details

Date: 27 March 2023
Orbit: 554 x 3314 km, 32.9° (Epoch: 08 June)

Event Time Altitude Azimuth Distance (km) Brightness Sun altitude
Rises 03:48:03 0° 275° (W) 4,376 10.8 -45.0°
Reaches altitude 10° 03:50:30 10° 272° (W) 3,683 10.2 -45.3°
Enters shadow 03:55:22 38° 259° (WSW) 2,609 9.1 -45.8°
